Regional Weather Roundup
Issued by NWS Green Bay, WI

Home | Current Version | Previous Version | Text Only | Print | Product List | Glossary On
Versions: 1 2 3 4 5 6 7 8 9 10 11 12 13 14 15 16 17 18 19 20 21 22 23 24 25 26 27 28 29 30 31 32 33 34 35 36 37 38 39 40 41 42 43 44 45 46 47 48 49 50
209
ASUS43 KGRB 300411
RWRGRB

NORTH-CENTRAL AND NORTHEAST WISCONSIN REGIONAL WEATHER ROUNDUP
NATIONAL WEATHER SERVICE GREEN BAY WI
1100 PM CDT SAT APR 29 2017

WIZ005-009-010>012-018-019-300500-
NORTH CENTRAL WISCONSIN

CITY           SKY/WX    TMP DP  RH WIND       PRES   REMARKS
IRONWOOD       CLOUDY    34  22  61 E5        30.30F
MANITOWISH WTR CLOUDY    37  22  56 NE5       30.27F
ARBOR VITAE    MOCLDY    40  20  45 NE5       30.25F
EAGLE RIVER    MOCLDY    38  16  40 NE7       30.26F
LAND O LAKES   PTCLDY    37  23  56 NE3       30.29F
RHINELANDER    MOCLDY    42  23  46 NE9       30.24R
PHILLIPS       MOCLDY    40  24  52 NE10G17   30.24S
ANTIGO         CLOUDY    40  19  43 NE21G26   30.21S
TOMAHAWK       CLOUDY    43  21  41 NE7       30.23F
MERRILL        CLOUDY    44  21  40 E7        30.21F
$$

WIZ013-073-300500-
NORTHEAST WISCONSIN

CITY           SKY/WX    TMP DP  RH WIND       PRES   REMARKS
IRON MOUNTAIN  MOCLDY    38  19  46 N3        30.27F
MARINETTE      CLOUDY    41  25  53 NE15G21   30.25F
OCONTO         CLOUDY    42  27  54 NE13G21   30.21F
$$

WIZ017-030-035>037-045-300500-
CENTRAL WISCONSIN

CITY           SKY/WX    TMP DP  RH WIND       PRES   REMARKS
MEDFORD        CLOUDY    42  29  60 NE12      30.19F
WAUSAU         CLOUDY    44  22  41 NE10G20   30.17F
MOSINEE        CLOUDY    43  28  56 NE13      30.18F
MARSHFIELD     CLOUDY    43  27  53 E9        30.16F
WISC RAPIDS    CLOUDY    45  25  45 E15       30.16F
STEVENS POINT  CLOUDY    42  23  47 NE14G24   30.16F
WAUPACA        CLOUDY    46  27  48 NE10G18   30.17F
SHAWANO        CLOUDY    46  25  43 NE14G26   30.19F
CLINTONVILLE   CLOUDY    43  25  49 NE13G24   30.16F
WAUTOMA        CLOUDY    44  26  49 NE14G28   30.14F
$$

WIZ038-039-048-051-300500-
FOX VALLEY

CITY           SKY/WX    TMP DP  RH WIND       PRES   REMARKS
NWS GREEN BAY  CLOUDY    44  36  73 NE23G32   30.17F
APPLETON       CLOUDY    45  23  42 NE17G24   30.16F
OSHKOSH        CLOUDY    42  29  59 E23G35    30.12F
FOND DU LAC    CLOUDY    41  31  67 E23G31    30.12F
$$

WIZ022-050-052-300500-
EAST CENTRAL WISCONSIN

CITY           SKY/WX    TMP DP  RH WIND       PRES   REMARKS
EPHRAIM        MOCLDY    39  29  67 NE12G17   30.24F
WASHINGTON ISL FAIR      38  30  72 NE13      30.27F
STURGEON BAY   CLOUDY    42  27  55 NE14G21   30.23F
MANITOWOC      CLOUDY    40  33  76 NE10G18   30.19S
SHEBOYGAN      LGT RAIN  40  36  86 NE21      30.13F
$$

LMZ563-521-522-541>543-300500-
LAKESHORE

STATION/POSITION TIME  TEMP    WIND        PRES    VSBY  WAVE
                       AIR SEA DIR/SP/G                  HT/PER
                 (UTC) (F)     (DEG/KT/KT) (MB)    (MI)  (FT/S)
SHEBOYGAN LKSHOR 0400   40      40/ 24/ 30 1020.6F
KEWAUNEE LKSHORE 0342   42      30/ 17/ 22 1022.5F
NORTHPORT PIER   0330   40      10/ 13/ 16 1025.1F
N MID LAKE BUOY  0350   39 37   40/ 16/ 17 1026.1F         2/ 3
CHAMBERS ISLAND  0340   40     360/ 18/ 21 1024.0F
MENOMINEE LKSHOR 0342   42      20/ 22/ 26 1023.5F
$$




USA.gov is the U.S. government's official web portal to all federal, state and local government web resources and services.